#timestamp,LO_Frequency,Hit,StdDev 
1637355615.5,286047000.7,N
1637355635.3,286046998.6,N
1637355655.1,286047000.2,N
1637355675.9,286047000.2,N
1637355695.7,286046998.2,N
1637355715.5,286047000.7,N
1637355735.4,286047000.2,N
1637355755.2,286047000.3,N
1637355775.0,286047000.9,N
1637355776.0,286047000.9,N
1637355795.8,286047000.1,N
1637355815.6,286047002.1,N
1637355835.5,286047000.4,N
1637355855.3,286046998.6,N
1637355875.1,286046998.9,N
1637355895.9,286046998.5,N
1637355915.7,286047000.2,N
1637355935.5,286047000.4,N
1637355955.4,286047000.0,N
1637355975.2,286046999.8,N
1637355995.0,286047002.3,N
1637355995.9,286047002.3,N
1637356015.8,286047000.5,N
1637356035.6,286047000.6,N
1637356055.4,286047000.9,N
1637356075.3,286046999.7,N
1637356095.1,286047001.2,N
1637356115.9,286047000.7,N
1637356135.7,286047000.4,N
1637356155.5,286046999.8,N
1637356175.4,286047000.4,N
1637356195.2,286047000.8,N
1637356215.0,286047000.2,N
1637356215.9,286047000.2,N
1637356235.8,286047002.4,N
1637356255.6,286047001.1,N
1637356275.4,286047000.7,N
1637356295.3,286046999.8,N
1637356315.1,286046999.8,N
1637356335.8,286046999.8,N
1637356355.7,286046999.9,N
1637356375.5,286046999.7,N
1637356395.4,286047002.7,N
1637356415.2,286047000.4,N
1637356435.0,286047000.5,N
1637356435.9,286047000.5,N
1637356455.8,286046999.7,N
1637356475.6,286046999.8,N
1637356495.4,286047000.6,N
1637356515.3,286046998.2,N
1637356535.1,286047000.3,N
1637356555.8,286046999.9,N
1637356575.7,286047000.6,N
1637356595.5,286047001.1,N
1637356615.4,286047002.4,N
1637356635.2,286047002.4,N
1637356655.0,286047000.6,N
1637356655.9,286047000.6,N
1637356675.8,286047000.0,N
1637356695.6,286047000.1,N
1637356715.4,286047000.4,N
1637356735.3,286047000.5,N
1637356755.1,286047000.3,N
1637356775.8,286047000.4,N
1637356795.7,286046999.7,N
1637356815.5,286047000.8,N
1637356835.4,286047000.8,N
1637356855.2,286047000.2,N
1637356875.0,286047000.3,N
1637356875.9,286047000.3,N
1637356895.8,286047000.9,N
1637356915.6,286047000.2,N
1637356935.4,286047002.1,N
1637356955.3,286047002.0,N
1637356975.1,286046999.7,N
1637356995.8,286047000.1,N
1637357015.7,286047002.4,N
1637357035.5,286047002.8,Y
1637357055.4,286047000.9,P
1637357075.2,286047000.6,P
1637357095.0,286047000.1,N
1637357095.9,286047000.1,N
1637357115.8,286047000.4,N
1637357135.6,286046998.1,Y
1637357155.4,286047000.7,P
1637357175.3,286047001.1,P
1637357195.1,286047000.7,N
1637357215.9,286047000.5,N
1637357235.7,286047000.6,N
1637357255.5,286047000.2,N
1637357275.4,286047002.6,Y
1637357295.2,286047002.2,P
1637357315.0,286047002.0,N
1637357315.9,286047002.0,N
1637357335.8,286047002.5,Y
1637357355.6,286046998.3,P
1637357375.5,286046998.9,N
1637357395.3,286046996.8,N
1637357415.1,286046996.9,N
1637357435.9,286046996.5,N
1637357455.7,286046997.8,N
1637357475.5,286046997.5,N
1637357495.4,286046997.4,N
1637357515.2,286046997.5,N
1637357535.1,286046995.0,Y
1637357536.0,286046995.0,P
1637357555.8,286046999.3,N
1637357575.6,286046998.9,N
1637357595.5,286046998.6,N
1637357615.3,286046998.8,N
1637357635.1,286047000.7,N
1637357655.9,286047000.5,N
1637357675.7,286047001.2,N
1637357695.5,286046998.7,N
1637357715.4,286046998.7,N
1637357735.2,286046998.8,N
1637357755.0,286046998.9,N
1637357756.0,286046998.9,N
1637357775.8,286046997.1,N
1637357795.6,286046997.3,N
1637357815.5,286046998.7,N
1637357835.3,286046998.3,N
1637357855.1,286046999.0,N
1637357875.9,286046999.0,N
1637357895.7,286046998.2,N
1637357915.5,286047000.8,N
1637357935.4,286046998.3,N
1637357955.2,286046998.6,N
1637357975.0,286046998.7,N
1637357975.9,286046998.7,N
1637357995.8,286047000.8,N
1637358015.6,286046998.5,N
1637358035.5,286046998.2,N
1637358055.3,286046998.6,N
1637358075.1,286046998.5,N
1637358095.9,286046999.4,N
1637358115.7,286046996.5,Y
1637358135.5,286046998.1,P
1637358155.4,286046998.5,P
1637358175.2,286046998.1,P
1637358195.0,286046998.3,Y
1637358195.9,286046998.3,P
1637358215.8,286047002.8,P
1637358235.6,286047002.0,N
1637358255.5,286047002.5,N
1637358275.3,286047000.1,N
1637358295.1,286047000.0,N
1637358315.9,286047000.3,N
1637358335.7,286047001.2,N
1637358355.5,286047001.2,N
1637358375.4,286047000.3,N
1637358395.2,286047002.7,N
1637358415.1,286047002.8,N
1637358416.0,286047002.8,N
1637358435.8,286046999.9,N
1637358455.6,286047002.1,N
1637358475.5,286047004.3,N
1637358495.3,286047002.7,N
1637358515.1,286047002.7,N
1637358535.9,286047002.4,N
1637358555.7,286047000.1,N
1637358575.6,286047000.2,N
1637358595.4,286047000.6,N
1637358615.2,286047000.9,N
1637358635.1,286047000.4,N
1637358666.0,286047002.5,E
1637358675.0,286047000.4,N
1637358675.9,286047000.4,P
1637358695.7,286046998.6,P
1637358715.6,286046998.5,N
1637358735.4,286046998.4,N
1637358755.3,286046998.3,N
1637358775.1,286046998.5,N
1637358776.0,286046998.5,N
1637358795.8,286046998.9,N
1637358815.7,286046999.4,N
1637358835.5,286046999.0,N
1637358855.3,286046998.5,N
1637358875.2,286046998.6,N
1637358895.0,286046998.4,N
1637358895.9,286046998.4,N
1637358915.8,286046998.6,N
1637358935.6,286047000.8,N
1637358955.4,286047000.9,N
1637358975.3,286046998.6,N
1637358995.1,286047000.9,N
1637358996.0,286047000.9,N
1637359015.8,286047002.7,N
1637359035.7,286047002.6,N
1637359055.5,286046999.9,N
1637359075.3,286047002.8,N
1637359095.2,286047002.2,N
1637359115.0,286047002.7,N
1637359115.9,286047002.7,N
1637359135.8,286046999.9,N
1637359155.6,286047000.9,N
1637359175.4,286046999.9,N
1637359195.3,286047002.8,N
